Childress, TX

7:30 PM CDT on April 22, 2018 (GMT -0500)
Childress Municipal

Weather History for KCDS - July, 2013

Change the Weather History Date:

Sunday, July 21, 2013

  Actual Average Record
Temperature  
Mean Temperature 85 °F 84 °F  
Max Temperature 96 °F 96 °F 109 °F (1981)
Min Temperature 73 °F 71 °F 57 °F (1970)
Degree Days  
Heating Degree Days 0 0  
Month to date heating degree days 0 0  
Since 1 June heating degree days 0 2  
Since 1 July heating degree days 0 0  
Cooling Degree Days 20 19  
Month to date cooling degree days 344 384  
Year to date cooling degree days 1197 1117  
Since 1 June cooling degree days 846 805  
Growing Degree Days 34 (Base 50)    
Moisture  
Dew Point 62 °F    
Average Humidity 55    
Maximum Humidity 79    
Minimum Humidity 30    
Precipitation  
Precipitation 0.00 in 0.06 in 1.82 in (1924)
Month to date precipitation 2.00 1.36  
Year to date precipitation 10.12 13.88  
Snow  
Snow 0.00 in 0.00 in - ()
Month to date snowfall 0.0 0.0  
Since 1 June snowfall 0.0 0.0  
Since 1 July snowfall 0.0 0.0  
Snow Depth -    
Sea Level Pressure  
Sea Level Pressure 29.82 in    
Wind  
Wind Speed 11 mph (SSW)    
Max Wind Speed 20 mph    
Max Gust Speed 25 mph    
Visibility 10 miles    
Events      
T = Trace of Precipitation, MM = Missing Value Source: NWS Daily Summary

Daily Weather History Graph

Daily Weather History Graph

Search for Another Location

Airport or City:

Astronomy

Jul. 21, 2013 Rise Set
Actual Time 6:44 AM CDT 8:50 PM CDT
Civil Twilight 6:15 AM CDT 9:18 PM CDT
Nautical Twilight 5:41 AM CDT 9:53 PM CDT
Astronomical Twilight 5:04 AM CDT 10:30 PM CDT
Moon 7:52 PM CDT (7/21) 5:31 AM CDT (7/21)
Length of Visible Light 15h 03m
Length of Day
14h 06m
Waxing Gibbous, 98% of the Moon is Illuminated
Jul 21
Waxing Gibbous
Jul 22
Full
Jul 29
Last Quarter
Aug 6
New
Aug 14
First Quarter

Hourly Weather History & Observations

Time (CDT) Temp. Heat Index Dew Point Humidity Pressure Visibility Wind Dir Wind Speed Gust Speed Precip Events Conditions
12:53 AM 77.0 °F - 64.9 °F 66% 29.83 in 10.0 mi South 6.9 mph - N/A   Clear
1:53 AM 75.0 °F - 66.0 °F 73% 29.84 in 10.0 mi South 5.8 mph - N/A   Clear
2:53 AM 73.9 °F - 66.0 °F 76% 29.82 in 10.0 mi South 8.1 mph - N/A   Clear
3:53 AM 73.0 °F - 64.9 °F 76% 29.82 in 10.0 mi South 6.9 mph - N/A   Clear
4:53 AM 75.0 °F - 64.0 °F 69% 29.83 in 10.0 mi SW 8.1 mph - N/A   Clear
5:53 AM 73.9 °F - 64.0 °F 71% 29.83 in 10.0 mi WSW 5.8 mph - N/A   Clear
6:53 AM 73.9 °F - 64.0 °F 71% 29.84 in 10.0 mi WSW 4.6 mph - N/A   Clear
7:53 AM 77.0 °F - 64.0 °F 64% 29.84 in 10.0 mi West 6.9 mph - N/A   Clear
8:53 AM 80.1 °F 81.5 °F 63.0 °F 56% 29.85 in 10.0 mi WSW 12.7 mph - N/A   Clear
9:53 AM 84.0 °F 84.0 °F 60.1 °F 44% 29.87 in 10.0 mi West 15.0 mph - N/A   Clear
10:53 AM 88.0 °F 87.1 °F 59.0 °F 37% 29.86 in 10.0 mi SW 18.4 mph 21.9 mph N/A   Clear
11:53 AM 90.0 °F 90.0 °F 61.0 °F 38% 29.87 in 10.0 mi West 12.7 mph - N/A   Clear
12:53 PM 91.9 °F 91.8 °F 61.0 °F 35% 29.85 in 10.0 mi SW 16.1 mph 20.7 mph N/A   Clear
1:53 PM 93.9 °F 93.6 °F 60.1 °F 32% 29.83 in 10.0 mi SW 15.0 mph 25.3 mph N/A   Clear
2:53 PM 95.0 °F 94.4 °F 59.0 °F 30% 29.81 in 10.0 mi SW 12.7 mph 23.0 mph N/A   Clear
3:53 PM 95.0 °F 94.4 °F 59.0 °F 30% 29.81 in 10.0 mi SW 11.5 mph 19.6 mph N/A   Partly Cloudy
4:53 PM 95.0 °F 94.4 °F 59.0 °F 30% 29.79 in 10.0 mi SSW 16.1 mph - N/A   Clear
5:53 PM 93.9 °F 93.6 °F 60.1 °F 32% 29.78 in 10.0 mi SSW 15.0 mph 21.9 mph N/A   Clear
6:53 PM 93.9 °F 92.9 °F 57.9 °F 30% 29.77 in 10.0 mi SSW 13.8 mph - N/A   Clear
7:53 PM 91.0 °F 90.5 °F 60.1 °F 35% 29.78 in 10.0 mi South 12.7 mph - N/A   Clear
8:53 PM 86.0 °F 86.1 °F 61.0 °F 43% 29.80 in 10.0 mi South 8.1 mph - N/A   Clear
9:53 PM 82.9 °F 83.7 °F 62.1 °F 49% 29.80 in 10.0 mi South 9.2 mph - N/A   Clear
10:53 PM 80.1 °F 81.5 °F 63.0 °F 56% 29.83 in 10.0 mi South 8.1 mph - N/A   Clear
11:53 PM 78.1 °F - 64.0 °F 62% 29.84 in 10.0 mi South 5.8 mph - N/A   Clear